Location: Unspecified
(0.0000°N, 0.0000°E)
Time: 21:26:01
(UTC+00:00)

Hubble Space Telescope - Pass Details

Date: 13 February 2018
Orbit: 537 x 541 km, 28.5° (Epoch: 23 May)

Event Time Altitude Azimuth Distance (km) Brightness Sun altitude
Exits shadow 03:49:39 14° 94° (E) 1,543 3.8 -35.0°
Drops below altitude 10° 03:50:23 10° 89° (E) 1,784 4.1 -34.8°
Sets 03:52:51 0° 78° (ENE) 2,674 5.1 -34.2°
